Погода в Лобке

Россия / Псковская область     55°51′54″N   29°57′35″E
темп.,
°C
ветер,
м/с
пор.,
м/с
влажн.,
%
обл.,
%
осадки,
мм/ч
давл.,
гПа
погр.,
м
12 апреля, пн
пн1200:00+8ююв3118136 0.0 1028221
03:00+7ююв3108254 0.0 1028199
06:00+6ююв311805 0.0 1028207
09:00+10ююв410672 0.0 1028382
12:00+14юв59460 0.0 10261150
15:00+16юв5840100 0.0 10241420
18:00+14ююв4845100 0.0 1022762
21:00+10юв31066100 0.0 1022357
13 апреля, вт
вт1300:00+9ююв41193100 0.4 1022611
03:00+9ююв2696100 0.8 1021256
06:00+8ююв2397100 0.0 102173
09:00+11ююв2383100 0.0 1020291
12:00+14ююв2467100 0.0 1020830
15:00+13ююв1479100 0.0 1019385
18:00+11юв1193100 0.4 101818
21:00+10ююв1297100 1.7 101842
14 апреля, ср
ср1400:00+10ююв2796100 0.3 1017269
03:00+9ююв3897100 0.3 1016367
06:00+9ю399584 0.0 1016381
09:00+10ююз369299 0.0 1016487
12:00+12зюз237797 0.1 1016789
15:00+12ссз227696 0.6 1016509
18:00+8ссв3791100 0.3 1017375
21:00+6ссв4992100 0.3 1018339
15 апреля, чт
чт1500:00+5ссв4994100 0.0 1018314
03:00+4ссв41095100 0.0 1018333
06:00+4ссв31097100 2.7 1017393
09:00+4ссв4997100 10.1 1018331
12:00+5ссв4896100 1.9 1018333
15:00+5ссв4895100 2.6 1018333
18:00+5ссв4997100 1.1 1018301
21:00+6ссв41198100 1.1 1018430
16 апреля, пт
пт1600:00+6ссв41198100 0.0 1018505
03:00+6ссв41198100 0.0 1018476
06:00+6св41296100 0.9 1018548
09:00+7св51492100 1.5 1019652
12:00+9св51287100 0.1 1020694
15:00+9св61286100 1.6 1021883
18:00+10всв51286100 1.6 1022901
21:00+9св61380100 1.9 1023899